Regional Weather Roundup
Issued by NWS

Home | Current Version | Previous Version | Text Only | Print | Product List | Glossary On
Versions: 1 2 3 4 5 6 7 8 9 10 11 12 13 14 15 16 17 18 19 20 21 22 23 24 25 26 27 28 29 30 31 32 33 34 35 36 37 38 39 40 41 42 43 44 45 46 47 48 49 50
000
ASUS43 KDTX 030410
RWRMI
MICHIGAN HOURLY REGIONAL WEATHER ROUNDUP
NATIONAL WEATHER SERVICE DETROIT/PONTIAC MI
1200 AM EDT MON AUG 03 2015

NOTE: "FAIR" INDICATES FEW OR NO CLOUDS BELOW 12,000 FEET WITH NO
SIGNIFICANT WEATHER AND/OR OBSTRUCTION TO VISIBILITY.

MIZ047>049-052>055-059>063-066>070-074>076-081>083-030500-
SOUTHEAST LOWER MICHIGAN

CITY           SKY/WX    TMP DP  RH WIND       PRES   REMARKS
ADRIAN         LGT RAIN  66  59  78 N20G37    29.84R
ALMA           CLOUDY    63  62  97 SW8       29.67S
ANN ARBOR      TSTM      63  61  93 NW7       29.81R FOG
BAD AXE        RAIN      62  60  94 S14       29.62S
DETROIT CITY   TSTM      63  60  90 CALM      29.81R FOG
DETROIT        TSTM      64  61  90 NW5       29.82R FOG
FLINT          LGT RAIN  63  60  90 S24       29.64F FOG
GROSSE ILE     LGT RAIN  66  61  82 N16       29.80R
HILLSDALE      HVY RAIN  62  62  99 NW13G24   29.85R
HOWELL         LGT RAIN  62  61  97 S13       29.73F

CITY           SKY/WX    TMP DP  RH WIND       PRES   REMARKS
JACKSON        TSTM      63  61  93 S8        29.79R FOG
LAMBERTVILLE   MOCLDY    80  63  55 SW14G21   29.75R
LANSING        LGT RAIN  63  61  93 W8G23     29.72F
LAPEER         NOT AVBL
MASON          LGT RAIN  61  59  95 S10G20    29.71F
MONROE         CLOUDY    72  58  61 NW16G28   29.81R
MT. CLEMENS    TSTM      63  62  97 S6        29.75F
PONTIAC        RAIN      61  60  97 S6        29.74F
PORT HURON     RAIN      63  63 100 S8        29.76F
TRI CITIES     CLOUDY    63  60  90 SW9       29.66R
YPSILANTI      HVY RAIN  66  61  84 NW5       29.82R
$$
MIZ043>046-050>051-056>058-064>065-071>073-077>080-030500-
SOUTHWEST LOWER MICHIGAN

CITY           SKY/WX    TMP DP  RH WIND       PRES   REMARKS
BATTLE CREEK   LGT RAIN  66  61  84 S17G29    29.69F
BENTON HARBOR  TSTM      66  63  90 VRB7G18   29.68F FOG
BIG RAPIDS     CLOUDY    63  62  95 CALM      29.67R
COLDWATER      HVY RAIN  62  61  95 NW3       29.81R
HOLLAND        CLOUDY    69  66  90 W6        29.67R
GRAND RAPIDS   CLOUDY    67  63  87 W7        29.66R THUNDER
KALAMAZOO      TSTM      65  62  90 SW16      29.70F FOG
MARSHALL       RAIN      63  61  94 S7        29.75F
MUSKEGON       CLOUDY    68  64  87 NW3       29.67R
$$
MIZ016>042-030500-
NORTHERN LOWER MICHIGAN

CITY           SKY/WX    TMP DP  RH WIND       PRES   REMARKS
ALPENA         CLOUDY    62  60  93 SW7       29.61R
BEAVER ISLAND  PTCLDY    63  59  86 W5        29.63R
BELLAIRE       CLOUDY    58  57  96 CALM      29.64S FOG
CADILLAC       CLOUDY    59  59 100 NW6       29.67R
CHARLEVOIX     MOCLDY    65  62  87 NW12G18   29.66R
FRANKFORT      FOG       59  59  99 CALM      29.65R VSB 3/4
GAYLORD        CLOUDY    60  60 100 W8        29.64S
GRAYLING       CLOUDY    58  57  97 CALM      29.65R
HARBOR SPRINGS CLOUDY    64  62  93 CALM      29.62R
HOUGHTON LAKE  CLOUDY    61  59  93 S7        29.66R
MANISTEE       CLOUDY    61  55  82 CALM      29.66R
OSCODA         CLOUDY    64  63  96 SW8       29.62R
PELLSTON       CLOUDY    64  62  93 W8        29.61R
TRAVERSE CITY  CLOUDY    61  59  93 S5        29.64R
$$
MIZ007>008-015-030500-
EASTERN UPPER MICHIGAN

CITY           SKY/WX    TMP DP  RH WIND       PRES   REMARKS
KINROSS        PTCLDY    59  57  94 W7        29.60R
MACKINAC ISLAN   N/A     62  62 100 NW7       29.60R
NEWBERRY       CLEAR     56  56  99 W7        29.61F
S. S. MARIE    PTCLDY    60  56  86 W8        29.58F
$$
MIZ004>006-011>014-085-030500-
CENTRAL UPPER MICHIGAN

CITY           SKY/WX    TMP DP  RH WIND       PRES   REMARKS
MANISTIQUE     FOG       52  52 100 CALM      29.63R VSB 1/4
ESCANABA         N/A     63  61  94 W5        29.64S VSB 1/2
MENOMINEE      MOCLDY    63  59  88 W3        29.66S
SAWYER-GWINN   CLEAR     57  53  86 W7        29.66S
$$
MIZ001>003-009>011-084-030500-
WESTERN UPPER MICHIGAN

CITY           SKY/WX    TMP DP  RH WIND       PRES   REMARKS
IRON MOUNTAIN  CLEAR     57  55  93 CALM      29.67S
HOUGHTON       CLOUDY    62  48  60 N8        29.66S
COPPER HARBOR    N/A     63  51  65 N6        29.64R
IRONWOOD       CLEAR     57  52  82 SW3       29.71S
$$

ABBREVIATIONS USED IN REMARKS
   TC - TEMPERATURE IN CELSIUS
  WCI - WIND CHILL INDEX
   HX - HEAT INDEX
  VSB - VISIBILITY



USA.gov is the U.S. government's official web portal to all federal, state and local government web resources and services.